map of ALG home
ALG - Airport
Location
City:  Algiers, Boumerdès, Algeria
Name:Houari Boumediene Airport
Old (Alt.):Algiers Airport
ICAO:DAAG
IATA:ALG

Details
Type:Airport (Aerodrome, Airfield)
Use:Public/Civil, International (customs port of entry)
Latitude:36°41'40"N (36.694444)
Longitude:3°13'01"E (3.216944)
Elevation:82 ft (25 m)
Variation:1.29°E (WMM2015v2 magnetic declination)
0.13° annual change
Runways:2
Longest:11483 × 197 ft (3500 × 60 m), paved

Time
Time Zone:UTC+1
Local Time:

Weather
METAR:DAAG 041400Z 35015KT 9999 SCT020TCU SCT040 13/03 Q1027
TAF:DAAG 041100Z 0412/0512 36014KT 9999 SCT020
TEMPO 0412/0418 SCT020TCU FEW026CB
BECMG 0420/0422 VRB02KT

Related Locations
Nearby:
Farthest:GIS: 12123 mi / 19510 km
Gisborne, GIS, NZ

Find:

   beyond  
but within

Other Information
Maps:
NOTAMs:
Links:
Sources:

  
  • flag of Algeria
  

Sectional Chart

Flight Planning
at skyvector.com

Satellite Image

Google Maps Satellite view

 

Copyright © 2004-2019 Karl L. Swartz. All rights reserved.
The Great Circle Mapper name and logo are trademarks of the Great Circle Mapper.
All other trademarks mentioned herein belong to their respective owners.
Please see credits for attibutions and further copyright information.

  Follow gcmap on Facebook Follow gcmap on Twitter GCmap on LinkedIn

hCard Microformat

Geo Microformat